Погода в Питнаке

Узбекистан     41°13′09″N   61°18′59″E
темп.,
°C
ветер,
м/с
пор.,
м/с
влажн.,
%
обл.,
%
осадки,
мм/ч
давл.,
гПа
погр.,
м
28 сентября, вт
вт2823:00+18юз22370 0.0 101711
02:00+16юз22400 0.0 101611
05:00+15зюз22430 0.0 101511
08:00+18зюз12385 0.0 101631
11:00+22зюз22281 0.0 10161116
14:00+24з23233 0.0 10141604
17:00+25сз232285 0.0 10131782
20:00+22с333118 0.0 101433
29 сентября, ср
ср2923:00+20св3340100 0.0 101541
02:00+16ссв58470 0.0 1016153
05:00+15св46490 0.0 1016122
08:00+16св34450 0.0 1018137
11:00+21св22300 0.0 1018722
14:00+24ссз23260 0.0 10171821
17:00+25ссз33240 0.0 10172122
20:00+21ссв57320 0.0 1018135
30 сентября, чт
чт3023:00+18св59400 0.0 1019215
02:00+16св58480 0.0 1019188
05:00+14св59490 0.0 1019181
08:00+15св58480 0.0 1020219
11:00+21всв55320 0.0 1020715
14:00+24св44260 0.0 10181395
17:00+25св66260 0.0 10171617
20:00+20ссв813355 0.0 1019426
1 октября, пт
пт123:00+15св914431 0.0 1020420
02:00+14св813450 0.0 1020371
05:00+12св813451 0.0 1020358
08:00+12всв71244100 0.0 1021365
11:00+15св784093 0.1 1022533
14:00+18ссв773847 0.2 1022759
17:00+19ссв7828100 0.2 10211183
20:00+14ссв91140100 0.0 1023463
2 октября, сб
сб223:00+12ссв695099 0.0 1024386
02:00+12ссв6939100 0.0 1025421
05:00+13ссв693390 0.0 1025502
08:00+13ссв7834100 0.0 1026475
11:00+15св672925 0.0 1027877
14:00+18ссв66235 0.0 10261398
17:00+18ссв771930 0.0 10261538
20:00+14ссв510225 0.0 1027233